[[{"header":{"parameterUnit":"m.s-1","parameterCategory":1,"la1":30.2991,"la2":30.254,"lo1":-89.0895,"lo2":-89.0444,"dy":0.0017,"dx":0.0017,"nx":28,"ny":28,"refTime":"2023-04-29T21:00:00:Z","depth":0,"parameterNumber":2,"parameterNumberName":"U-component_of_WINDS"},"data":[0,0,0,0,0,0,0,0,0,0,0,0,0,0,0,0,0,0,0,0,0,0,0,0,0,0,0,0,0,0,0,0,0,0,0,0,0,0,0,0,0,0,0,0,0,0,0,0,0,0,0,0,0,0,0,0,0,0,4.0464,4.0466,0,4.0589,4.059,4.0592,4.0509,4.0505,4.0501,4.0498,4.063,4.0636,4.0643,0,0,0,0,0,0,0,0,0,0,0,0,0,4.0159,4.0165,4.0464,4.0466,4.0467,4.0589,4.059,4.0592,4.051,4.0505,4.05,4.0496,4.0627,4.0636,4.0644,0,0,0,0,0,0,0,0,0,0,0,0,0,4.0289,4.0167,4.0464,4.0441,4.044,4.0588,4.059,4.0592,4.0511,4.0505,4.0499,4.0494,4.0624,4.0635,4.0645,4.0825,0,0,4.0678,4.0682,0,0,0,0,0,0,0,0,4.0281,4.03,4.0442,4.0442,4.0442,4.0527,4.0531,4.0671,4.0512,4.0484,4.0498,4.0491,4.0601,4.0613,4.0649,4.0831,4.0836,4.0678,4.0685,4.0689,4.0692,0,0,0,0,0,0,0,4.0272,4.0294,4.0513,4.0445,4.0444,4.0425,4.0438,4.0557,4.0573,4.0486,4.048,4.0496,4.0599,4.0639,4.0651,4.0838,4.0678,4.0688,4.0694,4.0698,4.1176,4.1182,0,0,0,0,0,0,4.0265,4.0287,4.051,4.0517,4.0346,4.0436,4.0449,4.0506,4.0571,4.0576,4.0501,4.0492,4.0623,4.0639,4.0656,4.0871,4.0689,4.0699,4.0705,4.117,4.1177,4.1184,0,0,0,0,0,0,4.0259,4.0286,4.0504,4.0401,4.0427,4.0447,4.0511,4.0511,4.055,4.0582,4.0585,4.0538,4.062,4.0641,4.0783,4.0874,4.0704,4.0714,4.1162,4.1172,4.1181,4.1303,0,0,0,0,0,0,4.025,4.0284,4.0351,4.0403,4.0433,4.0629,4.0517,4.0518,4.0569,4.0558,4.0618,4.0622,4.0617,4.0768,4.0794,4.0886,4.0722,4.1154,4.1167,4.1178,4.1291,4.1315,4.1336,0,0,0,0,0,4.024,4.0381,4.0355,4.0382,4.0517,4.0635,4.0652,4.0641,4.0576,4.0645,4.0665,4.0621,4.086,4.0783,4.0812,4.0908,4.1148,4.1163,4.1177,4.1281,4.1311,4.1336,0,0,0,0,0,0,4.0341,4.0387,4.0359,4.0521,4.0574,4.062,4.0706,4.0673,4.0747,4.0734,4.0719,4.0734,4.0883,4.091,4.0823,4.1086,4.0994,4.1015,4.1063,4.1092,4.1114,4.1105,4.0731,0,0,0,0,0,4.0381,4.0471,4.0508,4.0647,4.0676,4.0687,4.0737,4.0725,4.078,4.0802,4.0833,4.089,4.0978,4.1036,4.1119,4.1294,4.1307,4.1375,4.1397,4.1416,4.1434,4.1531,4.1562,4.1231,4.1231,4.1231,0,0,4.0467,4.0504,4.0562,4.0669,4.0708,4.0804,4.0706,4.0811,4.0882,4.0819,4.0955,4.098,4.1042,4.1203,4.1275,4.1229,4.1528,4.1434,4.1449,4.1457,4.1548,4.158,4.1608,4.1241,4.1239,4.1237,0,0,4.0672,4.0708,4.0829,4.0871,4.0932,4.0939,4.0968,4.102,4.1034,4.117,4.1125,4.121,4.1362,4.1408,4.1452,4.1676,4.1638,4.1704,4.1823,4.1917,4.1943,4.1966,4.2047,4.2076,4.1721,4.1722,4.1722,0,4.0772,4.0911,4.0896,4.1004,4.1053,4.0999,4.1123,4.1164,4.1251,4.1286,4.1234,4.1424,4.1462,4.1633,4.1688,4.1724,4.1759,4.1697,4.194,4.1963,4.1984,4.2062,4.2092,4.1729,4.1729,4.1728,4.1727,0,4.1031,4.1129,4.122,4.1303,4.1362,4.1478,4.1481,4.1543,4.1526,4.1538,4.1679,4.1723,4.1814,4.1854,4.1838,4.2023,4.1993,4.1941,4.1849,4.2024,4.2096,4.2126,4.174,4.1738,4.1735,4.1733,0,0,4.1303,4.1376,4.141,4.1448,4.1512,4.1588,4.1702,4.179,4.1844,4.1906,4.2002,4.2132,4.2084,4.2134,4.2123,4.2205,4.2382,4.2143,4.2144,4.2187,4.2591,4.263,4.2664,4.2357,4.2362,4.2367,4.2586,0,4.1513,4.1709,4.1699,4.1884,4.1975,4.1926,4.2025,4.2077,4.2092,4.2173,4.219,4.2283,4.2212,4.2242,4.2321,4.2343,4.2463,4.2327,4.2448,4.2452,4.2434,4.2702,4.2744,4.2948,4.2614,4.2618,4.2622,0,4.1783,4.1853,4.2047,4.2098,4.2136,4.2225,4.2306,4.2383,4.2441,4.2447,4.2503,4.2479,4.2595,4.2499,4.2661,4.2569,4.2618,4.2637,4.2644,4.2656,4.2548,4.2722,4.3013,4.3044,4.2666,4.2663,4.2659,0,4.1963,4.2106,4.2241,4.2274,4.2337,4.2402,4.2431,4.2483,4.2537,4.2608,4.2643,4.2728,4.2774,4.2841,4.2841,4.2771,4.3006,4.2909,4.3015,4.3015,4.3067,4.3064,4.3371,4.3097,4.3097,4.3096,4.3096,0,4.2199,4.232,4.2322,4.2406,4.254,4.2528,4.2662,4.2685,4.2732,4.282,4.2783,4.2867,4.2861,4.2947,4.2948,4.3083,4.3104,4.3113,4.3112,4.3117,4.3116,4.3149,4.3135,4.3104,4.3102,4.3101,4.31,0,4.2423,4.243,4.2573,4.2621,4.2636,4.2734,4.2776,4.2855,4.2867,4.2979,4.3005,4.3025,4.3123,4.313,4.3244,4.3245,4.3409,4.3392,4.3389,4.3386,4.3492,4.3483,4.3833,4.3878,4.3574,4.3576,4.3579,0,4.2573,4.2665,4.2723,4.2779,4.2812,4.2902,4.2957,4.2949,4.3008,4.3081,4.3153,4.3247,4.3323,4.3483,4.3509,4.3596,4.3582,4.3698,4.3595,4.3597,4.3585,4.358,4.359,4.3719,4.3722,4.3725,4.3727,0,4.284,4.2838,4.2918,4.3,4.3066,4.313,4.319,4.3238,4.3238,4.3306,4.3406,4.3465,4.3581,4.3676,4.3762,4.3794,4.3762,4.3759,4.3789,4.3795,4.379,4.3796,4.3445,4.3752,4.3749,4.3747,4.3746,4.3745,4.3032,4.3112,4.3165,4.3256,4.33,4.3357,4.3434,4.3456,4.3539,4.3632,4.3623,4.3734,4.3791,4.3902,4.3941,4.4029,4.399,4.4032,4.4043,4.4054,4.4066,4.3776,4.4045,4.4044,4.4044,4.4043,4.4043,0,4.3298,4.333,4.3413,4.3497,4.3569,4.3531,4.3595,4.3658,4.3756,4.3811,4.3886,4.4002,4.4094,4.4127,4.4218,4.4282,4.427,4.4306,4.4302,4.431,4.4095,4.4061,4.4315,4.4315,4.4315,4.4315,4.4315,4.4315,4.3444,4.3578,4.3583,4.3738,4.377,4.3877,4.3918,4.3971,4.4015,4.4145,4.4221,4.4241,4.4289,4.4382,4.4466,4.4474,4.4509,4.4553,4.4554,4.4353,4.4325,4.4299,4.4267,4.456,4.4561,4.4762,4.4764,4.4765]},{"header":{"parameterUnit":"m.s-1","parameterCategory":1,"la1":30.2991,"la2":30.254,"lo1":-89.0895,"lo2":-89.0444,"dy":0.0017,"dx":0.0017,"nx":28,"ny":28,"refTime":"2023-04-29T21:00:00:Z","depth":0,"parameterNumber":3,"parameterNumberName":"V-component_of_WINDS"},"data":[0,0,0,0,0,0,0,0,0,0,0,0,0,0,0,0,0,0,0,0,0,0,0,0,0,0,0,0,0,0,0,0,0,0,0,0,0,0,0,0,0,0,0,0,0,0,0,0,0,0,0,0,0,0,0,0,0,0,-1.9043,-1.9044,0,-1.9139,-1.914,-1.9141,-1.9155,-1.9154,-1.9153,-1.9152,-1.9251,-1.9254,-1.9258,0,0,0,0,0,0,0,0,0,0,0,0,0,-1.8872,-1.8876,-1.9043,-1.9044,-1.9045,-1.9138,-1.914,-1.9141,-1.9155,-1.9154,-1.9153,-1.9152,-1.925,-1.9254,-1.9258,0,0,0,0,0,0,0,0,0,0,0,0,0,-1.8955,-1.8877,-1.9042,-1.9063,-1.9066,-1.9138,-1.914,-1.9141,-1.9155,-1.9154,-1.9152,-1.9151,-1.9248,-1.9253,-1.9258,-1.9317,0,0,-1.9274,-1.9277,0,0,0,0,0,0,0,0,-1.895,-1.8961,-1.9059,-1.9062,-1.9065,-1.9133,-1.9116,-1.92,-1.9155,-1.9121,-1.9152,-1.915,-1.9213,-1.9221,-1.9242,-1.9321,-1.9326,-1.9275,-1.9278,-1.928,-1.9282,0,0,0,0,0,0,0,-1.8945,-1.8957,-1.9081,-1.906,-1.9064,-1.9068,-1.9078,-1.9132,-1.9173,-1.9124,-1.9125,-1.9136,-1.9214,-1.9237,-1.9244,-1.9327,-1.9275,-1.9279,-1.9282,-1.9284,-1.946,-1.9461,0,0,0,0,0,0,-1.8935,-1.8952,-1.9078,-1.9084,-1.9003,-1.9072,-1.9084,-1.9113,-1.9173,-1.9181,-1.9137,-1.9137,-1.9229,-1.9238,-1.9248,-1.932,-1.928,-1.9285,-1.9288,-1.9458,-1.946,-1.9462,0,0,0,0,0,0,-1.8931,-1.8946,-1.9074,-1.9018,-1.9035,-1.9076,-1.9109,-1.9115,-1.9138,-1.9183,-1.919,-1.9153,-1.9228,-1.924,-1.9299,-1.9323,-1.9287,-1.9292,-1.9456,-1.9459,-1.9461,-1.9464,0,0,0,0,0,0,-1.8926,-1.8945,-1.8967,-1.9019,-1.9038,-1.9124,-1.9111,-1.9118,-1.9147,-1.9146,-1.9199,-1.9207,-1.9228,-1.9292,-1.9305,-1.933,-1.9296,-1.9454,-1.9457,-1.946,-1.9462,-1.9467,-1.947,0,0,0,0,0,-1.892,-1.8964,-1.8968,-1.8983,-1.9067,-1.9125,-1.9136,-1.9159,-1.9148,-1.9171,-1.92,-1.9205,-1.9319,-1.9298,-1.9312,-1.9339,-1.9453,-1.9456,-1.946,-1.9461,-1.9466,-1.947,0,0,0,0,0,0,-1.8915,-1.8972,-1.8976,-1.9038,-1.9077,-1.9127,-1.9157,-1.9164,-1.9206,-1.9204,-1.9232,-1.9244,-1.9301,-1.9327,-1.9302,-1.9399,-1.9385,-1.9391,-1.938,-1.9386,-1.939,-1.9382,-1.93,0,0,0,0,0,-1.8921,-1.8963,-1.9011,-1.9061,-1.908,-1.9115,-1.9141,-1.9156,-1.9197,-1.9213,-1.9247,-1.9286,-1.9331,-1.936,-1.9404,-1.9466,-1.9478,-1.9492,-1.9496,-1.9499,-1.9504,-1.9539,-1.9546,-1.9473,-1.9473,-1.9473,0,0,-1.8934,-1.897,-1.8995,-1.9061,-1.9092,-1.9136,-1.9129,-1.9175,-1.9208,-1.922,-1.9278,-1.9304,-1.935,-1.9411,-1.944,-1.9434,-1.9527,-1.9504,-1.9506,-1.9509,-1.9544,-1.955,-1.9556,-1.9475,-1.9475,-1.9475,0,0,-1.8979,-1.9011,-1.9056,-1.9088,-1.9135,-1.9158,-1.9169,-1.9219,-1.9236,-1.9295,-1.9305,-1.9344,-1.9421,-1.9453,-1.948,-1.9538,-1.9543,-1.9551,-1.9572,-1.9605,-1.9611,-1.9616,-1.9637,-1.9644,-1.9556,-1.9556,-1.9557,0,-1.8989,-1.9055,-1.9079,-1.9124,-1.9153,-1.9167,-1.9213,-1.9242,-1.9302,-1.9321,-1.9314,-1.941,-1.9442,-1.9511,-1.9525,-1.9546,-1.9559,-1.9545,-1.9608,-1.9614,-1.9619,-1.9639,-1.9646,-1.9557,-1.9557,-1.9557,-1.9557,0,-1.9064,-1.911,-1.9141,-1.9197,-1.923,-1.9275,-1.9306,-1.9336,-1.9348,-1.9372,-1.9431,-1.947,-1.9522,-1.954,-1.9552,-1.961,-1.9605,-1.9603,-1.9589,-1.9626,-1.9645,-1.9653,-1.9558,-1.9558,-1.9558,-1.9557,0,0,-1.9109,-1.9178,-1.9189,-1.9215,-1.9268,-1.9304,-1.9351,-1.9401,-1.9426,-1.9467,-1.9506,-1.9571,-1.9569,-1.9599,-1.9615,-1.9645,-1.9688,-1.9639,-1.964,-1.9646,-1.9754,-1.9755,-1.9764,-1.9692,-1.9694,-1.9695,-1.975,0,-1.916,-1.9243,-1.9266,-1.9336,-1.9378,-1.9392,-1.9432,-1.947,-1.9493,-1.9533,-1.9559,-1.9604,-1.9599,-1.9617,-1.9647,-1.9676,-1.971,-1.9673,-1.9729,-1.9731,-1.9717,-1.9774,-1.9775,-1.9825,-1.9758,-1.9759,-1.976,0,-1.9231,-1.9273,-1.9347,-1.9395,-1.9414,-1.9449,-1.9497,-1.9535,-1.9578,-1.9593,-1.9627,-1.964,-1.9689,-1.9673,-1.9741,-1.9715,-1.974,-1.9758,-1.9761,-1.9766,-1.9747,-1.9781,-1.9842,-1.9849,-1.9772,-1.9771,-1.977,0,-1.9256,-1.933,-1.9384,-1.9406,-1.9463,-1.9488,-1.9514,-1.9555,-1.9584,-1.9626,-1.9645,-1.9692,-1.9718,-1.9755,-1.9781,-1.9767,-1.9847,-1.9833,-1.9861,-1.986,-1.9877,-1.9875,-1.9942,-1.9893,-1.9893,-1.9893,-1.9893,0,-1.931,-1.9355,-1.9396,-1.9429,-1.948,-1.9506,-1.9555,-1.9581,-1.9618,-1.9657,-1.9672,-1.9707,-1.974,-1.978,-1.9801,-1.9854,-1.9866,-1.988,-1.9885,-1.9878,-1.9876,-1.9894,-1.9891,-1.9895,-1.9894,-1.9894,-1.9894,0,-1.9346,-1.9375,-1.9435,-1.9484,-1.9498,-1.9533,-1.9575,-1.9608,-1.9632,-1.9681,-1.9694,-1.9732,-1.9781,-1.981,-1.9872,-1.9886,-1.9944,-1.9948,-1.993,-1.9932,-1.9958,-1.9955,-2.0039,-2.0051,-1.9994,-1.9994,-1.9995,0,-1.9379,-1.9413,-1.9466,-1.9493,-1.9518,-1.9561,-1.9591,-1.9618,-1.9648,-1.9699,-1.9726,-1.9775,-1.9816,-1.9893,-1.9926,-1.9973,-1.9978,-2.0004,-1.9985,-1.9978,-1.9978,-1.9975,-1.9979,-2.0007,-2.0008,-2.0008,-2.0008,0,-1.9434,-1.9446,-1.9488,-1.9534,-1.9569,-1.9607,-1.9645,-1.9666,-1.97,-1.9733,-1.9783,-1.9814,-1.9877,-1.9926,-1.9976,-2.0002,-2.0011,-2.0014,-2.0023,-2.0017,-2.0004,-2.0011,-1.9938,-2.0012,-2.0012,-2.0011,-2.0011,-2.0011,-1.9469,-1.95,-1.9542,-1.9588,-1.9619,-1.9655,-1.9688,-1.9716,-1.9758,-1.981,-1.9824,-1.9876,-1.9918,-1.9986,-2.0014,-2.0055,-2.0051,-2.0064,-2.0067,-2.007,-2.007,-1.9998,-2.0064,-2.0064,-2.0064,-2.0064,-2.0064,0,-1.9524,-1.9552,-1.9594,-1.9646,-1.9682,-1.9687,-1.973,-1.976,-1.9805,-1.9843,-1.9883,-1.994,-1.9987,-2.0024,-2.0073,-2.0099,-2.0104,-2.0111,-2.0109,-2.0115,-2.0071,-2.0058,-2.0106,-2.0105,-2.0105,-2.0105,-2.0105,-2.0105,-1.9557,-1.961,-1.9628,-1.9697,-1.9725,-1.9775,-1.9799,-1.9832,-1.9862,-1.9925,-1.9964,-1.9988,-2.0026,-2.0078,-2.0121,-2.0131,-2.0148,-2.0154,-2.0164,-2.0122,-2.0118,-2.0113,-2.0102,-2.0158,-2.0158,-2.0205,-2.0205,-2.0206]}]]